Weather History for Jackson, TN

Change the Weather History Date:

Saturday, January 4, 2014

  Actual Average Record
Temperature  
Mean Temperature 36 °F 38 °F  
Max Temperature 48 °F 48 °F 72 °F (1997)
Min Temperature 23 °F 29 °F 8 °F (1959)
Degree Days  
Heating Degree Days 29 27  
Month to date heating degree days 131 108  
Since 1 July heating degree days 1688 1526  
Cooling Degree Days 0 0  
Month to date cooling degree days 0 0  
Year to date cooling degree days 0 0  
Moisture  
Dew Point 19 °F    
Average Humidity 46    
Maximum Humidity 65    
Minimum Humidity 26    
Precipitation  
Precipitation 0.00 in 0.14 in 1.36 in (1949)
Month to date precipitation 0.27 0.56  
Year to date precipitation 0.27 0.56  
Snow  
Snow 0.00 in 0.00 in T in (1999)
Month to date snowfall T 0.2  
Since 1 July snowfall T 0.5  
Snow Depth 0.00 in    
Sea Level Pressure  
Sea Level Pressure 30.14 in    
Wind  
Wind Speed 10 mph (South)    
Max Wind Speed 22 mph    
Max Gust Speed 30 mph    
Visibility 10 miles    
Events      
T = Trace of Precipitation, MM = Missing Value Source: NWS Daily Summary

Daily Weather History Graph

Daily Weather History Graph

Search for Another Location

Airport:

Trip Planner

Search our weather history database for the weather conditions in past years. The results will help you decide how hot, cold, wet, or windy it might be!

Date:

Astronomy

Jan. 04, 2014 Rise Set
Actual Time 7:05 AM CST 4:55 PM CST
Civil Twilight 6:37 AM CST 5:24 PM CST
Nautical Twilight 6:05 AM CST 5:55 PM CST
Astronomical Twilight 5:34 AM CST 6:26 PM CST
Moon 9:19 AM CST (1/4) 9:06 PM CST (1/4)
Length of Visible Light 10h 46m
Length of Day
9h 50m
Waxing Crescent, 15% of the Moon is Illuminated
Jan 4
Waxing Crescent
Jan 7
First Quarter
Jan 15
Full
Jan 23
Last Quarter
Jan 30
New

Hourly Weather History & Observations

Time (CST) Temp. Windchill Dew Point Humidity Pressure Visibility Wind Dir Wind Speed Gust Speed Precip Events Conditions
12:53 AM 24.1 °F 18.2 °F 10.0 °F 55% 30.27 in 10.0 mi South 4.6 mph - N/A   Clear
1:53 AM 25.0 °F 18.1 °F 12.0 °F 58% 30.29 in 10.0 mi South 5.8 mph - N/A   Clear
2:53 AM 25.0 °F 17.1 °F 10.9 °F 55% 30.28 in 10.0 mi South 6.9 mph - N/A   Clear
3:53 AM 25.0 °F 15.5 °F 12.0 °F 58% 30.26 in 10.0 mi South 9.2 mph - N/A   Clear
4:53 AM 26.1 °F 16.2 °F 10.9 °F 53% 30.24 in 10.0 mi South 10.4 mph - N/A   Clear
5:53 AM 27.0 °F 18.7 °F 10.9 °F 51% 30.23 in 10.0 mi SSE 8.1 mph 17.3 mph N/A   Clear
6:53 AM 27.0 °F 20.5 °F 12.0 °F 53% 30.24 in 10.0 mi South 5.8 mph - N/A   Clear
7:53 AM 28.0 °F 20.8 °F 12.0 °F 51% 30.24 in 10.0 mi Variable 6.9 mph - N/A   Clear
8:53 AM 32.0 °F 21.2 °F 12.9 °F 45% 30.23 in 10.0 mi South 16.1 mph 27.6 mph N/A   Clear
9:53 AM 36.0 °F 25.0 °F 15.1 °F 43% 30.23 in 10.0 mi SSW 20.7 mph 29.9 mph N/A   Clear
10:53 AM 37.9 °F 28.2 °F 16.0 °F 41% 30.19 in 10.0 mi South 18.4 mph 26.5 mph N/A   Clear
11:53 AM 42.1 °F 34.5 °F 17.1 °F 37% 30.15 in 10.0 mi South 15.0 mph 21.9 mph N/A   Clear
12:53 PM 45.0 °F 38.5 °F 16.0 °F 31% 30.12 in 10.0 mi South 13.8 mph 20.7 mph N/A   Clear
1:53 PM 46.9 °F - 14.0 °F 27% 30.08 in 10.0 mi South 12.7 mph 20.7 mph N/A   Clear
2:53 PM 48.0 °F - 16.0 °F 28% 30.07 in 10.0 mi South 10.4 mph 18.4 mph N/A   Clear
3:53 PM 48.0 °F - 17.1 °F 29% 30.06 in 10.0 mi South 10.4 mph 17.3 mph N/A   Clear
4:53 PM 45.0 °F 41.2 °F 21.0 °F 39% 30.03 in 10.0 mi SSE 6.9 mph - N/A   Clear
5:53 PM 43.0 °F 41.3 °F 23.0 °F 45% 30.04 in 10.0 mi SSE 3.5 mph - N/A   Clear
6:53 PM 41.0 °F 38.0 °F 25.0 °F 53% 30.04 in 10.0 mi SSE 4.6 mph - N/A   Clear
7:53 PM 42.1 °F 38.4 °F 28.0 °F 58% 30.03 in 10.0 mi SSE 5.8 mph - N/A   Mostly Cloudy
8:53 PM 45.0 °F 39.3 °F 32.0 °F 60% 30.04 in 10.0 mi South 11.5 mph 18.4 mph N/A   Overcast
9:53 PM 45.0 °F 38.9 °F 34.0 °F 65% 30.04 in 10.0 mi South 12.7 mph 23.0 mph N/A   Overcast
10:53 PM 45.0 °F 39.3 °F 34.0 °F 65% 30.03 in 10.0 mi SSE 11.5 mph 19.6 mph N/A   Overcast
11:53 PM 44.1 °F 37.7 °F 34.0 °F 68% 30.02 in 10.0 mi South 12.7 mph 24.2 mph N/A   Overcast